Retour au catalogue

IRIDIUM 173

ActifCommunicationsPO
NORAD 43925·PAYLOAD·🇺🇸 United States

Lancé Jan 11, 2019 depuis Vandenberg Space Force Base

Loading…

Prochains Passages (prochaines 24 heures)

TLE

FraisSource: CelesTrak SupGP

Époque: Sep 14, 2026, 20:45 UTC

1 43925C 19002D   26257.86493056 -.00001362  00000+0 -48681-3 0  2578
2 43925  86.3975 316.0974 0002326  95.4635  37.2109 14.34217669    14

Suivez IRIDIUM 173 en temps réel avec AllMySat

Download on the App Store